Simultaneous Nadir Overpasses (SNOs) Predictions

Prediction of SNOs between METOP-A and TERRA Satellite Orbit:

Table of predicted SNOs for the next 14.0 days since TLE Epoch: 12/31/2016
Index Date (METOP-A) Time (METOP-A) Lat,Lon (METOP-A) SZA (METOP-A ) Date (TERRA) Time (TERRA) Lat,Lon (TERRA) SZA (TERRA ) Distance(km) Time Diff (sec)
1 01/02/2017 01:00:33 81.31,-148.00 106.73 01/02/2017 01:01:00 81.30,-148.09 106.72 1.82 27
2 01/02/2017 01:51:13 -81.31, 19.76 73.24 01/02/2017 01:50:26 -81.31, 19.81 73.25 0.86 47
3 01/04/2017 20:34:55 81.31, -81.49 106.42 01/04/2017 20:35:13 81.31, -81.40 106.44 1.74 18
4 01/04/2017 21:25:35 -81.31, 86.26 73.54 01/04/2017 21:24:40 -81.31, 86.14 73.58 2.09 55
5 01/07/2017 16:09:18 81.31, -15.01 106.06 01/07/2017 16:09:28 81.31, -15.01 106.06 0.26 10
6 01
